[TLELIST] Archives

 

Current TLEs

June 5th 2008 PDT

HST 1 20580U 90037B 08155.97345485 +.00000281 +00000-0 +88943-5 0 01628 2 20580 028.4683 049.4135 0003922 240.5943 119.4260 15.00383201792999 ISS (ZARYA) 1 25544U 98067A 08157.38441170 .00009075 00000-0 59300-4 0 6077 2 25544 051.6375 077.2401 0005651 298.8484 165.8262 15.76722265546660 CXO 1 25867U 99040B 08156.95833333 +.00000300 +00000-0 +10000-3 0 02065 2 25867 063.7286 080.7776 6809184 279.0829 353.1942 00.37795398003584 ____________________________________________________________________ These 2-Line ...Continue Reading

Current TLEs

June 4th 2008 PDT

HST 1 20580U 90037B 08156.10649230 .00000298 00000-0 10157-4 0 1505 2 20580 028.4683 048.5452 0003877 241.5995 118.4206 15.00383369793016 ISS (ZARYA) 1 25544U 98067A 08155.41978245 .00024371 00000-0 15208-3 0 5979 2 25544 051.6399 087.3640 0005391 290.2679 175.1850 15.76736537546356 CXO 1 25867U 99040B 08154.33333333 +.00000410 +00000-0 +10000-3 0 02051 2 25867 063.7125 080.8523 6807249 279.1481 355.7516 00.37802452003576 ____________________________________________________________________ These 2-Line ...Continue Reading

Current TLEs

June 3rd 2008 PDT

HST 1 20580U 90037B 08154.90915383 .00000291 00000-0 96455-5 0 1493 2 20580 028.4682 056.3547 0003967 229.7051 130.3191 15.00382971792831 ISS (ZARYA) 1 25544U 98067A 08155.16419272 .00012767 00000-0 81948-4 0 5949 2 25544 051.6372 088.6850 0005551 297.2214 156.3867 15.76667117546316 CXO 1 25867U 99040B 08154.33333333 +.00000410 +00000-0 +10000-3 0 02051 2 25867 063.7125 080.8523 6807249 279.1481 355.7516 00.37802452003576 ____________________________________________________________________ These 2-Line ...Continue Reading

Current TLEs

June 2nd 2008 PDT

HST 1 20580U 90037B 08152.91358989 +.00000306 +00000-0 +10840-4 0 01596 2 20580 028.4679 069.3690 0003967 209.7724 150.2633 15.00382418792530 ISS (ZARYA) 1 25544U 98067A 08154.15662503 .00012091 00000-0 77928-4 0 5868 2 25544 051.6372 093.8796 0005412 291.7396 199.0904 15.76637552546157 CXO 1 25867U 99040B 08151.66666667 +.00000540 +00000-0 +10000-3 0 02046 2 25867 063.6891 080.9674 6805844 279.1433 352.7644 00.37809652003566 ____________________________________________________________________ These 2-Line ...Continue Reading

Current TLEs

June 1st 2008 PDT

HST 1 20580U 90037B 08153.17966509 .00000325 00000-0 12247-4 0 1480 2 20580 028.4679 067.6333 0003934 211.8188 148.2162 15.00382650792573 ISS (ZARYA) 1 25544U 98067A 08153.20748251 .00011377 00000-0 73661-4 0 5808 2 25544 051.6367 098.7730 0005447 287.4681 212.5211 15.76610628546001 CXO 1 25867U 99040B 08151.66666667 +.00000540 +00000-0 +10000-3 0 02046 2 25867 063.6891 080.9674 6805844 279.1433 352.7644 00.37809652003566 ____________________________________________________________________ These 2-Line ...Continue Reading

Current TLEs

May 31st 2008 PDT

HST 1 20580U 90037B 08151.91580792 .00000305 00000-0 10725-4 0 1472 2 20580 028.4679 075.8766 0004001 199.8428 160.2003 15.00382089792385 ISS (ZARYA) 1 25544U 98067A 08151.86738640 .00009456 00000-0 62025-4 0 5727 2 25544 051.6375 105.6818 0005301 281.2532 167.5406 15.76571531545790 CXO 1 25867U 99040B 08151.66666667 +.00000540 +00000-0 +10000-3 0 02046 2 25867 063.6891 080.9674 6805844 279.1433 352.7644 00.37809652003566 ____________________________________________________________________ These 2-Line ...Continue Reading

Current TLEs

May 30th 2008 PDT

HST 1 20580U 90037B 08150.25283761 .00000310 00000-0 11086-4 0 1460 2 20580 028.4678 086.7216 0003997 182.8465 177.2102 15.00381619792130 ISS (ZARYA) 1 25544U 98067A 08151.18707176 .00008555 00000-0 56554-4 0 5697 2 25544 051.6368 109.1888 0005356 279.0029 265.9528 15.76553779545684 CXO 1 25867U 99040B 08149.04166667 +.00000557 +00000-0 +10000-3 0 02037 2 25867 063.6724 081.0456 6801232 279.1350 355.4955 00.37807499003557 ____________________________________________________________________ These 2-Line ...Continue Reading

Current TLEs

May 29th 2008 PDT

HST 1 20580U 90037B 08148.92246118 +.00000300 +00000-0 +10355-4 0 01621 2 20580 028.4678 095.4012 0003980 170.8135 189.2526 15.00381154791938 ISS (ZARYA) 1 25544U 98067A 08148.94315948 +.00008789 +00000-0 +58086-4 0 05555 2 25544 051.6374 120.7547 0005399 266.5972 134.3928 15.76514534545338 CXO 1 25867U 99040B 08149.04166667 +.00000557 +00000-0 +10000-3 0 02037 2 25867 063.6724 081.0456 6801232 279.1350 355.4955 00.37807499003557 ____________________________________________________________________ These 2-Line ...Continue Reading

Current TLEs

May 28th 2008 PDT

HST 1 20580U 90037B 08149.18853651 .00000303 00000-0 10604-4 0 1457 2 20580 028.4678 093.6641 0004006 172.8235 187.2418 15.00381261791970 ISS (ZARYA) 1 25544U 98067A 08149.34349925 .00008525 00000-0 56449-4 0 5584 2 25544 051.6367 118.6916 0005339 268.2713 246.3609 15.76520431545391 CXO 1 25867U 99040B 08149.04166667 +.00000557 +00000-0 +10000-3 0 02037 2 25867 063.6724 081.0456 6801232 279.1350 355.4955 00.37807499003557 ____________________________________________________________________ These 2-Line ...Continue Reading

Current TLEs

May 27th 2008 PDT

HST 1 20580U 90037B 08147.32600867 .00000324 00000-0 12247-4 0 1447 2 20580 028.4676 105.8126 0003965 153.6905 206.3886 15.00380836791694 ISS (ZARYA) 1 25544U 98067A 08148.32696205 .00008853 00000-0 58504-4 0 5530 2 25544 051.6374 123.9321 0005440 263.3325 238.1068 15.76503070545237 CXO 1 25867U 99040B 08146.41666667 +.00000490 +00000-0 +10000-3 0 02025 2 25867 063.6596 081.1016 6796408 279.1458 358.1803 00.37806132003548 ____________________________________________________________________ These 2-Line ...Continue Reading
  • This mailing list is a public mailing list - anyone may join or leave, at any time.
  • This mailing list is announce-only.

International Space Station (ISS) / Hubble Space Telescope (HST) / Chandra X-Ray Observatory Orbital Data via EMAIL

Privacy Policy:

Private list